NOAA 16 DEB, 41343

Orbit data source: Space-Track

NOAA 16 DEB, 41343 is space debris in SSO originally from a launch on Thu, 21 Sep 2000 UTC launched from the Air Force Western Test Range (AFWTR). Debris objects in space refer to the collection of defunct objects orbiting the Earth. Examples of debris include non-operational satellites, rocket bodies, and fragments generated from explosions, collisions, or faulty payload assembly.

Loading next visibility...
Identifier
41343, 2000-055HL
Orbit
SSO
Country
Flag of USUS
Related business
Manufacturer
Unknown
Mission
Spacecraft
Bus & Motor
Unknown
Mass
Unknown
Launch date (UTC)
2000-09-21 (26 years ago)
Launch vehicle
Unknown
Launch site
Air Force Western Test Range (AFWTR)
Object type
Payload
Rocket body
Debris
Shape & HBR
Unknown shape, 0.1 m
Radar Cross Section
Medium (>0.1 m² and <1 m²)

Expand to show TLE details & history
Last TLE update: 9 hours ago

TLE from 9 hours ago
0 NOAA 16 DEB
1 41343U 00055HL  26150.11376485  .00005424  00000-0  19053-2 0  9999
2 41343  98.5928 207.8050 0018242 291.8119  68.1126 14.35258723535836
Epoch: 2026-05-30T02:43Z
TLE epoch observation values (Epoch: 2026-05-30T02:43:49.283Z)
Latitude
0.00006°
Longitude
-80.7848°
Altitude
772.301 km
Speed
7.47 km/s
True Right ascension
13h 51m 13s
True Declination
0° 00' 00"
Sunlit
Object was in full shadow at epoch
Visualization orbit readout
Latitude
Unknown
Longitude
Unknown
Altitude
Unknown
Speed
Unknown
Apparent Right ascension
Unknown
Apparent Declination
Unknown
Sunlit
N/A
Visualization observer readout
Local Sidereal Time
21:21:55
Azimuth
Unknown
Elevation
Unknown
Doppler factor
Unknown
Orbital elements
Apogee altitude
784.381 km
Perigee altitude
758.297 km
Semi-major axis
7,149.476 km
Eccentricity
0.00182
Inclination
98.5928°
RAAN
207.805°
Arg. of periapsis
291.8119°
True anomaly
68.30673°
Mean anomaly
68.1126°
Eccentric anomaly
68.20965°
Mean motion
3.59031 °/min
Orbital period
100.27 mins
BSTAR
0.0019053
Loading maneuver chart data...
Computing Atmospheric mass density...

Documentation

Showing up to 5 results
|